Location: Le Rocchette
(44.3500°N, 7.8333°E)
Time: 03:52:18
(UTC+00:00)

SL-4 R/B - Pass Details

Date: 17 November 2019
Orbit: 428 x 667 km, 51.6° (Epoch: 13 December)

Event Time Altitude Azimuth Distance (km) Brightness Sun altitude
Exits shadow 05:35:25 12° 299° (WNW) 1,993 4.2 -9.3°
Maximum altitude 05:40:01 81° 213° (SSW) 677 2.4 -8.5°
Drops below altitude 10° 05:44:47 10° 127° (SE) 2,051 6.3 -7.7°
Sets 05:47:04 0° 126° (SE) 2,936 7.5 -7.4°
